When you browse on this site, cookies collect data to enhance your experience and personalize the content and advertising you see.
Visit our Privacy Policy to learn more. By continuing to use the site, you agree to this use of cookies and data.
  • En España
  • Lista de países
  • Para 7 días
  • Temperatura del agua
  • Mapa Satelital
  • El tiempo en el mapa
  • Informadores
  • user-avatar
    Iniciar sesión

    Tiempo cada hora San Juan

    Hoy, 21 Julio, Domingo

    Tiempo Temperatura Precipitaciones Viento Presión Humedad
    00:00 +16°C° 0 mm 3 mps 694 mmHg 26%
    01:00 +16°C° 0 mm 3 mps 694 mmHg 23%
    02:00 +16°C° 0 mm 3 mps 694 mmHg 22%
    03:00 +16°C° 0 mm 3 mps 694 mmHg 20%
    04:00 +16°C° 0 mm 3 mps 693 mmHg 19%
    05:00 +17°C° 0 mm 4 mps 694 mmHg 16%
    06:00 +17°C° 0 mm 4 mps 694 mmHg 14%
    07:00 +17°C° 0 mm 5 mps 695 mmHg 11%
    08:00 +21°C° 0 mm 7 mps 696 mmHg 10%
    09:00 +24°C° 0 mm 9 mps 697 mmHg 9%
    10:00 +27°C° 0 mm 11 mps 698 mmHg 7%
    11:00 +26°C° 0 mm 9 mps 697 mmHg 13%
    12:00 +24°C° 0 mm 8 mps 697 mmHg 18%
    13:00 +23°C° 0 mm 7 mps 697 mmHg 24%
    14:00 +20°C° 0 mm 8 mps 697 mmHg 32%
    15:00 +17°C° 0 mm 8 mps 698 mmHg 40%
    16:00 +15°C° 0 mm 9 mps 698 mmHg 48%
    17:00 +12°C° 0 mm 8 mps 699 mmHg 47%
    18:00 +11°C° 0 mm 8 mps 700 mmHg 46%
    19:00 +9°C° 0 mm 7 mps 702 mmHg 45%
    20:00 +9°C° 0 mm 7 mps 702 mmHg 43%
    21:00 +9°C° 0 mm 6 mps 703 mmHg 42%
    22:00 +9°C° 0 mm 6 mps 704 mmHg 40%
    23:00 +8°C° 0 mm 5 mps 704 mmHg 39%

    Mañana, 22 Julio, Lunes

    Tiempo Temperatura Precipitaciones Viento Presión Humedad
    00:00 +8°C° 0 mm 5 mps 705 mmHg 37%
    01:00 +8°C° 0 mm 4 mps 705 mmHg 36%
    02:00 +7°C° 0 mm 4 mps 705 mmHg 37%
    03:00 +7°C° 0 mm 4 mps 706 mmHg 37%
    04:00 +7°C° 0 mm 4 mps 706 mmHg 38%
    05:00 +7°C° 0 mm 4 mps 706 mmHg 38%
    06:00 +7°C° 0 mm 3 mps 707 mmHg 39%
    07:00 +7°C° 0 mm 3 mps 708 mmHg 39%
    08:00 +9°C° 0 mm 3 mps 708 mmHg 33%
    09:00 +10°C° 0 mm 3 mps 708 mmHg 27%
    10:00 +12°C° 0 mm 4 mps 709 mmHg 21%
    11:00 +12°C° 0 mm 4 mps 708 mmHg 21%
    12:00 +13°C° 0 mm 3 mps 707 mmHg 21%
    13:00 +13°C° 0 mm 3 mps 707 mmHg 21%
    14:00 +13°C° 0 mm 3 mps 707 mmHg 21%
    15:00 +13°C° 0 mm 3 mps 706 mmHg 21%
    16:00 +13°C° 0 mm 4 mps 706 mmHg 21%
    17:00 +12°C° 0 mm 3 mps 707 mmHg 23%
    18:00 +11°C° 0 mm 3 mps 707 mmHg 24%
    19:00 +9°C° 0 mm 3 mps 708 mmHg 25%
    20:00 +9°C° 0 mm 3 mps 708 mmHg 26%
    21:00 +8°C° 0 mm 3 mps 709 mmHg 28%
    22:00 +8°C° 0 mm 3 mps 709 mmHg 29%
    23:00 +7°C° 0 mm 3 mps 709 mmHg 31%

    Pasado mañana, 23 Julio, Martes

    Tiempo Temperatura Precipitaciones Viento Presión Humedad
    00:00 +7°C° 0 mm 2 mps 709 mmHg 33%
    01:00 +6°C° 0 mm 2 mps 709 mmHg 35%
    02:00 +6°C° 0 mm 2 mps 709 mmHg 37%
    03:00 +5°C° 0 mm 2 mps 709 mmHg 38%
    04:00 +4°C° 0 mm 2 mps 709 mmHg 40%
    05:00 +4°C° 0 mm 2 mps 710 mmHg 40%
    06:00 +4°C° 0 mm 2 mps 710 mmHg 41%
    07:00 +5°C° 0 mm 1 mps 711 mmHg 41%
    08:00 +6°C° 0 mm 2 mps 711 mmHg 36%
    09:00 +8°C° 0 mm 2 mps 711 mmHg 32%
    10:00 +10°C° 0 mm 2 mps 712 mmHg 27%
    11:00 +12°C° 0 mm 2 mps 711 mmHg 25%
    12:00 +12°C° 0 mm 2 mps 710 mmHg 24%
    13:00 +13°C° 0 mm 2 mps 710 mmHg 23%
    14:00 +13°C° 0 mm 2 mps 710 mmHg 23%
    15:00 +13°C° 0 mm 2 mps 710 mmHg 23%
    16:00 +13°C° 0 mm 2 mps 710 mmHg 23%
    17:00 +12°C° 0 mm 1 mps 710 mmHg 26%
    18:00 +10°C° 0 mm 1 mps 711 mmHg 30%
    19:00 +9°C° 0 mm 1 mps 711 mmHg 33%
    20:00 +8°C° 0 mm 1 mps 711 mmHg 34%
    21:00 +8°C° 0 mm 1 mps 712 mmHg 35%
    22:00 +7°C° 0 mm 1 mps 712 mmHg 36%
    23:00 +6°C° 0 mm 0 mps 712 mmHg 37%

    24 Julio, Miércoles

    Tiempo Temperatura Precipitaciones Viento Presión Humedad
    00:00 +5°C° 0 mm 0 mps 712 mmHg 38%
    01:00 +5°C° 0 mm 0 mps 712 mmHg 39%
    02:00 +4°C° 0 mm 0 mps 712 mmHg 42%
    03:00 +4°C° 0 mm 0 mps 712 mmHg 45%
    04:00 +4°C° 0 mm 0 mps 712 mmHg 48%
    05:00 +4°C° 0 mm 0 mps 713 mmHg 46%
    06:00 +4°C° 0 mm 0 mps 713 mmHg 43%
    07:00 +4°C° 0 mm 0 mps 714 mmHg 41%
    08:00 +8°C° 0 mm 1 mps 714 mmHg 36%
    09:00 +10°C° 0 mm 1 mps 714 mmHg 30%
    10:00 +12°C° 0 mm 1 mps 714 mmHg 25%
    11:00 +13°C° 0 mm 1 mps 714 mmHg 24%
    12:00 +14°C° 0 mm 2 mps 713 mmHg 22%
    13:00 +15°C° 0 mm 2 mps 713 mmHg 21%
    14:00 +15°C° 0 mm 2 mps 713 mmHg 21%
    15:00 +15°C° 0 mm 2 mps 712 mmHg 20%
    16:00 +15°C° 0 mm 2 mps 712 mmHg 20%
    17:00 +14°C° 0 mm 1 mps 712 mmHg 24%
    18:00 +12°C° 0 mm 1 mps 712 mmHg 27%
    19:00 +10°C° 0 mm 1 mps 713 mmHg 31%
    20:00 +9°C° 0 mm 1 mps 713 mmHg 32%
    21:00 +9°C° 0 mm 1 mps 713 mmHg 33%
    22:00 +8°C° 0 mm 1 mps 712 mmHg 34%
    23:00 +8°C° 0 mm 1 mps 712 mmHg 35%

    25 Julio, Jueves

    Tiempo Temperatura Precipitaciones Viento Presión Humedad
    00:00 +8°C° 0 mm 1 mps 712 mmHg 36%
    01:00 +7°C° 0 mm 1 mps 712 mmHg 37%
    02:00 +7°C° 0 mm 1 mps 712 mmHg 38%
    03:00 +6°C° 0 mm 2 mps 711 mmHg 38%
    04:00 +6°C° 0 mm 2 mps 711 mmHg 39%
    05:00 +6°C° 0 mm 2 mps 711 mmHg 39%
    06:00 +6°C° 0 mm 2 mps 711 mmHg 38%
    07:00 +7°C° 0 mm 1 mps 711 mmHg 37%
    08:00 +8°C° 0 mm 2 mps 711 mmHg 32%
    09:00 +12°C° 0 mm 2 mps 712 mmHg 27%
    10:00 +14°C° 0 mm 3 mps 712 mmHg 21%
    11:00 +16°C° 0 mm 3 mps 711 mmHg 19%
    12:00 +17°C° 0 mm 3 mps 711 mmHg 17%
    13:00 +18°C° 0 mm 3 mps 710 mmHg 15%
    14:00 +18°C° 0 mm 3 mps 710 mmHg 15%
    15:00 +18°C° 0 mm 2 mps 710 mmHg 15%
    16:00 +18°C° 0 mm 2 mps 710 mmHg 15%
    17:00 +16°C° 0 mm 2 mps 710 mmHg 18%
    18:00 +13°C° 0 mm 1 mps 710 mmHg 22%
    19:00 +11°C° 0 mm 1 mps 710 mmHg 25%
    20:00 +11°C° 0 mm 1 mps 710 mmHg 27%
    21:00 +9°C° 0 mm 2 mps 710 mmHg 28%
    22:00 +9°C° 0 mm 2 mps 710 mmHg 30%
    23:00 +8°C° 0 mm 2 mps 710 mmHg 32%

    26 Julio, Viernes

    Tiempo Temperatura Precipitaciones Viento Presión Humedad
    00:00 +8°C° 0 mm 2 mps 709 mmHg 33%
    01:00 +7°C° 0 mm 2 mps 709 mmHg 35%
    02:00 +7°C° 0 mm 2 mps 709 mmHg 37%
    03:00 +6°C° 0 mm 2 mps 709 mmHg 39%
    04:00 +6°C° 0 mm 2 mps 708 mmHg 42%
    05:00 +7°C° 0 mm 1 mps 709 mmHg 42%
    06:00 +7°C° 0 mm 1 mps 709 mmHg 42%
    07:00 +7°C° 0 mm 1 mps 709 mmHg 42%
    08:00 +9°C° 0 mm 1 mps 709 mmHg 36%
    09:00 +11°C° 0 mm 1 mps 710 mmHg 31%
    10:00 +14°C° 0 mm 1 mps 710 mmHg 25%
    11:00 +15°C° 0 mm 1 mps 709 mmHg 23%
    12:00 +16°C° 0 mm 2 mps 709 mmHg 21%
    13:00 +17°C° 0 mm 2 mps 708 mmHg 20%
    14:00 +17°C° 0 mm 2 mps 708 mmHg 20%
    15:00 +17°C° 0 mm 3 mps 708 mmHg 21%
    16:00 +16°C° 0 mm 3 mps 708 mmHg 21%
    17:00 +14°C° 0 mm 3 mps 708 mmHg 25%
    18:00 +13°C° 0 mm 3 mps 708 mmHg 28%
    19:00 +11°C° 0 mm 3 mps 709 mmHg 32%
    20:00 +10°C° 0 mm 2 mps 709 mmHg 34%
    21:00 +10°C° 0 mm 1 mps 709 mmHg 36%
    22:00 +10°C° 0 mm 1 mps 709 mmHg 38%
    23:00 +9°C° 0 mm 1 mps 709 mmHg 39%
    Mostrar más